[Date Prev][Date Next][Thread Prev][Thread Next] - [Date Index][Thread Index][Author Index]

2 Line ISS Keps 3-24



ISS
1 25544U 98067A   02083.16888365  .00041206  00000-0  53183-3 0  2223
2 25544  51.6370 120.1196 0003759 315.2552 150.8738 15.58552998190774


----
Via the sarex mailing list at AMSAT.ORG courtesy of AMSAT-NA.
To unsubscribe, send "unsubscribe sarex" to Majordomo@amsat.org



AMSAT Top AMSAT Home